Wind_Speed
35 35 36 36 37 38 38 39 40 41 41 42 43 43 44 44 45 47 47 49 50 51 51 52 53 54 55 55 56 57 58 59 60 59 61 62 63 64 65 65 66 66 67
35 36 36 37 38 38 39 40 41 41 42 43 43 44 44 45 46 47 48 50 51 51 52 52 53 54 55 56 58 59 60 61 62 62 62 63 64 65 66 66 67 68 68
35 36 37 38 38 39 40 40 41 42 43 43 43 44 45 46 47 48 49 50 51 51 52 53 54 55 57 58 59 60 62 63 64 65 64 64 64 66 66 67 68 69 70
35 36 37 38 38 39 40 41 42 42 43 43 44 45 46 47 48 49 50 51 51 52 53 54 56 57 58 60 61 62 63 64 65 66 65 65 65 66 67 68 68 69 70
36 37 38 38 39 39 40 41 42 43 43 44 45 46 47 48 48 49 50 51 52 53 54 56 57 58 59 61 62 63 64 65 66 66 66 66 66 66 67 68 68 69 69
37 38 39 39 40 40 41 42 42 43 43 44 45 46 47 48 49 50 51 52 53 54 55 56 57 59 60 61 62 64 65 66 66 66 66 66 66 66 67 68 69 68 67
38 39 40 40 40 41 41 42 43 43 44 45 46 47 48 49 50 51 52 53 54 55 56 57 58 59 61 62 64 65 66 66 67 67 66 65 66 67 68 68 68 67 65
39 40 40 40 41 42 42 43 44 44 45 46 47 48 49 50 51 52 53 54 55 56 57 58 59 61 62 64 65 65 65 65 66 66 66 66 67 68 68 67 66 65 63
40 40 41 41 42 43 43 44 45 46 47 48 48 49 50 51 52 54 55 56 56 57 58 59 61 62 64 65 66 65 65 65 65 65 66 66 67 67 67 66 65 63 61
40 41 42 42 43 44 45 45 46 47 48 48 49 50 51 52 54 55 56 57 58 58 60 61 62 64 65 65 66 65 65 65 65 65 66 66 65 65 66 65 63 61 60
41 42 42 43 45 45 46 47 47 48 49 49 50 51 53 54 55 57 58 59 59 60 61 62 63 65 65 65 65 65 65 66 65 65 65 64 64 64 63 62 60 59 58
42 43 44 45 46 46 47 48 49 49 50 51 52 53 54 55 57 58 59 60 60 61 62 63 65 65 65 65 65 66 66 66 66 65 63 63 62 61 60 58 58 57 55
43 44 45 46 47 47 48 49 49 50 51 52 53 54 55 56 58 59 59 60 61 62 63 65 65 65 64 64 65 65 65 65 64 63 62 60 59 58 56 56 55 53 51
44 45 46 47 47 48 49 50 50 51 52 53 54 55 56 58 58 59 59 60 61 62 64 64 64 64 64 64 64 64 63 63 61 60 58 57 56 55 53 52 50 47 44
45 46 47 48 48 49 50 51 52 53 54 55 56 57 58 58 58 59 60 61 62 63 64 63 63 63 62 63 62 62 61 59 58 57 56 55 53 51 49 46 43 40 38
46 47 48 48 49 50 51 52 53 54 55 56 58 59 59 59 60 60 61 62 63 64 63 63 62 62 62 61 60 59 58 56 56 55 53 51 48 45 42 40 38 36 34
47 48 49 50 51 51 52 53 54 55 56 57 58 59 59 60 60 61 61 62 63 63 62 62 61 61 60 59 58 57 55 54 53 51 48 46 43 41 39 37 35 33 31
48 49 50 51 52 52 53 54 55 56 57 58 58 59 59 60 61 61 62 62 62 62 61 61 60 60 59 57 56 54 52 50 48 46 44 41 39 38 37 35 33 31 28
49 50 51 52 52 53 54 55 56 57 58 58 58 58 59 60 61 61 62 62 61 60 60 59 59 58 57 55 53 50 48 46 44 42 40 38 37 36 35 33 30 28 26
50 51 51 52 53 54 55 56 57 58 58 57 58 59 60 60 61 61 61 60 60 59 58 58 58 57 54 51 49 47 45 43 41 39 37 36 35 34 32 30 28 26 24
51 51 52 53 54 55 56 57 57 57 57 58 59 60 61 61 61 60 59 58 58 58 58 57 56 53 51 48 46 44 42 40 38 36 35 34 33 32 30 28 26 24 22
51 52 52 54 55 56 56 57 57 57 58 59 60 60 61 61 60 58 57 57 57 57 57 56 53 50 47 45 43 42 39 37 36 35 34 32 31 30 28 26 25 22 20
52 52 53 54 56 56 57 57 57 58 59 59 60 60 60 59 59 58 57 57 56 56 55 52 49 46 44 43 41 39 37 35 34 33 32 31 29 28 26 25 23 20 18
52 53 54 55 56 56 57 57 57 58 58 59 59 59 59 58 57 57 56 55 54 53 51 49 46 43 42 40 39 38 36 35 34 32 31 29 28 26 24 22 20 18 16
53 54 55 55 56 56 56 57 57 57 58 58 58 58 57 56 55 54 53 52 50 49 48 46 43 40 39 38 37 37 36 34 32 31 30 28 26 24 22 21 19 17 15
53 54 54 55 55 56 56 56 56 57 56 56 56 55 54 53 52 51 50 49 48 47 45 43 40 38 37 36 36 35 34 32 31 30 29 26 24 22 21 19 18 16 14
Wind_Direction
289 290 291 292 293 294 295 295 295 295 295 296 296 297 297 297 297 297 297 297 298 298 298 298 298 298 299 299 299 299 300 300 300 300 300 300 299 298 298 298 298 298 297
288 290 291 292 293 294 295 295 295 295 295 296 296 297 297 298 298 298 298 299 299 298 298 298 298 299 299 299 299 300 300 300 301 301 301 299 299 298 298 298 298 298 298
288 290 291 292 293 294 295 296 295 295 295 296 296 297 298 298 299 299 299 300 299 299 299 299 299 299 300 300 300 300 300 300 301 301 301 300 299 299 298 298 299 299 299
289 290 292 293 294 295 295 295 296 296 296 296 296 297 298 299 299 299 300 300 300 299 299 300 300 300 300 300 300 300 300 301 301 301 301 300 300 299 299 299 299 300 300
289 291 293 293 294 295 296 297 297 297 296 297 297 298 298 299 300 300 301 301 300 300 300 300 300 300 300 300 300 300 301 301 301 301 301 300 300 299 300 300 301 301 301
290 292 293 293 294 296 297 298 298 298 298 298 299 299 300 300 300 301 302 302 301 301 301 301 301 301 301 301 301 302 302 302 301 301 301 301 301 301 301 301 302 302 302
290 292 293 293 294 296 297 298 299 299 299 299 300 300 300 300 300 301 302 302 302 301 302 302 302 302 302 302 302 302 302 302 301 301 301 301 302 302 302 302 303 303 303
290 292 293 294 295 296 297 298 299 299 299 300 300 300 300 301 301 302 303 303 302 302 303 303 302 302 302 303 303 303 302 301 301 301 302 302 302 303 303 303 303 303 303
290 291 293 294 295 296 297 298 299 299 300 300 300 301 301 301 301 302 303 304 304 303 303 303 303 303 303 303 303 302 302 301 301 302 302 302 303 303 303 303 303 303 304
290 292 293 294 295 296 297 298 299 300 300 301 301 301 301 302 302 303 304 304 304 303 303 304 304 304 304 303 303 303 302 302 302 302 302 302 302 303 303 303 303 304 304
290 292 293 294 296 297 298 298 299 300 301 301 302 302 302 303 304 304 305 305 305 304 304 305 305 305 305 304 303 303 303 303 303 303 303 302 302 302 302 303 303 304 305
291 292 293 295 296 297 298 299 300 301 301 302 302 303 303 304 305 305 305 305 305 305 305 306 306 305 304 304 304 304 304 304 304 304 303 303 302 302 302 303 304 304 305
291 293 294 295 297 298 299 300 300 301 302 302 303 304 304 305 305 306 306 306 306 306 307 307 306 305 304 304 304 304 304 305 304 304 304 304 303 303 303 303 303 304 305
291 293 295 296 297 298 299 300 301 301 302 303 303 304 305 306 306 306 307 307 307 308 308 307 306 306 306 306 305 305 305 305 305 305 305 305 304 304 304 303 304 304 304
291 293 295 296 297 298 299 301 301 302 303 303 304 305 306 306 307 307 308 308 308 309 309 308 307 307 307 306 306 305 305 305 305 306 306 306 306 306 305 305 305 305 304
291 293 295 296 297 298 300 301 301 302 303 304 305 306 306 307 307 308 308 309 309 309 309 309 309 308 308 307 306 306 305 305 306 306 307 308 308 307 307 307 306 305 304
292 293 295 296 297 298 300 301 302 303 304 305 306 306 307 307 308 308 309 310 310 310 310 310 310 309 309 308 308 308 307 306 306 307 307 308 308 309 308 308 307 306 304
293 294 295 297 297 299 300 301 302 304 305 306 306 306 307 308 308 309 310 310 310 310 310 311 311 311 310 310 309 308 308 307 307 307 307 308 308 309 309 308 307 305 304
293 295 296 297 298 300 301 302 303 304 305 306 306 307 308 309 309 310 310 310 310 310 311 311 311 311 311 311 310 309 309 308 308 307 307 307 308 309 309 308 306 305 304
294 296 297 298 299 300 302 303 304 304 305 306 307 308 309 309 310 310 310 310 311 311 311 311 312 312 312 311 310 310 309 309 308 307 306 307 307 308 308 306 305 303 303
295 296 297 299 300 301 302 303 304 305 305 307 307 308 309 310 310 310 310 311 311 311 311 312 312 312 312 311 311 311 310 310 309 308 307 307 307 307 306 305 304 302 300
295 296 298 299 301 302 303 303 304 305 306 307 307 308 309 310 310 310 310 311 311 311 312 312 312 311 311 311 311 311 310 310 309 309 308 308 307 306 305 305 304 301 298
295 296 298 299 301 302 303 304 305 305 306 307 308 309 309 309 310 310 311 311 311 311 311 311 311 311 310 311 311 311 311 310 309 308 308 308 307 306 304 303 301 298 294
296 297 299 300 301 302 303 304 304 305 306 307 308 309 309 310 310 310 310 311 311 312 312 312 312 311 311 311 311 310 310 310 309 308 307 307 306 304 302 301 298 294 289
296 298 299 300 301 302 303 304 304 305 306 307 308 309 310 310 310 311 311 312 312 313 313 312 312 311 311 310 310 310 310 309 308 308 307 306 304 301 299 297 294 289 284
297 298 299 301 302 302 303 304 304 306 307 308 309 310 310 311 311 312 312 313 313 313 313 312 311 310 310 310 309 310 309 308 308 307 307 305 302 299 296 293 289 285 279
Height
5729 5727 5724 5721 5718 5715 5712 5709 5705 5702 5698 5694 5691 5687 5683 5679 5675 5670 5666 5661 5657 5652 5647 5642 5637 5631 5626 5621 5615 5610 5604 5598 5594 5590 5583 5576 5569 5563 5556 5550 5544 5539 5533
5721 5718 5716 5713 5710 5707 5703 5700 5696 5692 5689 5685 5681 5677 5673 5669 5664 5660 5655 5650 5645 5640 5635 5630 5624 5619 5614 5608 5602 5596 5590 5583 5578 5574 5568 5560 5553 5546 5540 5533 5527 5520 5514
5712 5709 5707 5704 5701 5698 5694 5690 5687 5683 5679 5675 5671 5667 5663 5658 5653 5649 5644 5639 5633 5628 5623 5617 5612 5606 5601 5594 5588 5582 5575 5569 5562 5556 5551 5544 5537 5529 5522 5516 5509 5502 5494
5703 5700 5698 5695 5691 5688 5684 5681 5677 5673 5669 5665 5661 5656 5652 5647 5642 5637 5632 5627 5622 5616 5611 5605 5599 5593 5587 5580 5574 5567 5560 5553 5546 5539 5534 5527 5520 5512 5504 5498 5492 5484 5476
5694 5691 5688 5685 5682 5678 5675 5671 5667 5663 5659 5654 5650 5646 5641 5636 5631 5626 5621 5615 5610 5604 5598 5592 5585 5579 5572 5565 5559 5552 5545 5537 5530 5523 5516 5510 5503 5495 5487 5479 5473 5466 5458
5684 5681 5678 5675 5672 5668 5665 5661 5657 5652 5648 5644 5639 5634 5630 5624 5619 5614 5608 5603 5597 5591 5585 5579 5572 5565 5558 5551 5543 5536 5528 5520 5513 5506 5499 5492 5485 5477 5469 5461 5453 5447 5441
5675 5671 5668 5665 5662 5658 5655 5650 5646 5642 5637 5633 5628 5623 5618 5612 5607 5602 5596 5590 5584 5578 5572 5565 5558 5551 5543 5536 5528 5521 5512 5503 5496 5488 5481 5474 5466 5459 5451 5444 5435 5427 5420
5664 5661 5658 5655 5652 5648 5644 5640 5636 5631 5626 5622 5616 5611 5606 5600 5595 5589 5583 5577 5571 5564 5558 5551 5544 5536 5528 5520 5513 5505 5497 5488 5479 5471 5464 5457 5449 5440 5432 5425 5417 5410 5404
5654 5651 5648 5645 5641 5637 5633 5629 5625 5620 5615 5610 5605 5599 5594 5588 5582 5576 5570 5564 5557 5550 5543 5536 5528 5521 5513 5504 5496 5489 5481 5473 5464 5455 5448 5440 5431 5422 5414 5407 5400 5393 5388
5644 5641 5637 5634 5630 5626 5622 5618 5613 5608 5603 5598 5592 5587 5581 5575 5569 5563 5556 5550 5543 5536 5529 5521 5512 5504 5496 5487 5479 5471 5464 5456 5448 5440 5432 5423 5414 5406 5397 5389 5382 5376 5370
5633 5630 5626 5623 5619 5615 5610 5606 5601 5596 5591 5586 5580 5575 5568 5562 5556 5549 5541 5534 5527 5520 5513 5505 5497 5488 5479 5470 5462 5454 5446 5438 5431 5423 5415 5407 5398 5390 5381 5373 5366 5360 5354
5622 5619 5615 5611 5607 5603 5598 5594 5589 5583 5578 5573 5567 5561 5555 5548 5541 5534 5526 5519 5511 5504 5497 5489 5480 5471 5462 5454 5445 5437 5429 5421 5413 5405 5398 5390 5382 5374 5366 5358 5351 5345 5338
5611 5607 5603 5600 5595 5591 5586 5581 5576 5571 5565 5560 5554 5548 5541 5534 5527 5519 5511 5503 5495 5487 5479 5471 5463 5454 5445 5437 5429 5420 5412 5403 5396 5388 5381 5373 5365 5357 5350 5344 5337 5331 5325
5599 5595 5592 5588 5583 5578 5573 5568 5563 5557 5552 5546 5540 5534 5527 5520 5512 5504 5496 5488 5480 5471 5463 5454 5445 5436 5428 5420 5412 5403 5395 5387 5379 5371 5364 5357 5349 5342 5335 5329 5323 5318 5313
5587 5583 5579 5575 5570 5566 5561 5555 5549 5544 5538 5532 5526 5519 5512 5505 5497 5489 5481 5473 5464 5456 5446 5438 5429 5421 5412 5404 5395 5387 5379 5371 5363 5356 5349 5342 5335 5327 5321 5315 5310 5306 5302
5575 5571 5567 5562 5558 5553 5548 5542 5536 5530 5524 5517 5510 5503 5496 5489 5481 5474 5466 5457 5448 5439 5430 5422 5413 5404 5396 5388 5380 5372 5364 5356 5349 5342 5335 5328 5322 5315 5309 5304 5300 5296 5292
5562 5558 5554 5549 5544 5539 5534 5529 5523 5517 5510 5503 5496 5488 5481 5474 5466 5458 5450 5442 5433 5424 5415 5407 5398 5389 5380 5372 5364 5357 5349 5342 5335 5328 5322 5316 5310 5305 5300 5295 5291 5287 5284
5549 5545 5540 5536 5531 5526 5520 5515 5509 5503 5497 5489 5481 5473 5466 5459 5451 5443 5435 5427 5418 5409 5400 5392 5383 5374 5366 5357 5350 5342 5335 5328 5322 5316 5311 5305 5300 5296 5291 5287 5283 5279 5276
5536 5531 5527 5522 5517 5512 5506 5500 5494 5488 5481 5475 5468 5460 5452 5444 5436 5428 5419 5411 5403 5394 5386 5377 5368 5360 5351 5344 5336 5329 5322 5316 5311 5305 5300 5296 5291 5287 5283 5278 5275 5272 5269
5522 5517 5513 5508 5503 5497 5492 5486 5479 5473 5466 5460 5453 5445 5438 5430 5422 5413 5404 5395 5387 5380 5371 5363 5355 5346 5338 5331 5323 5317 5311 5305 5300 5295 5291 5286 5282 5278 5274 5270 5267 5265 5262
5508 5504 5499 5494 5489 5483 5477 5471 5465 5458 5452 5445 5438 5430 5422 5414 5406 5398 5390 5381 5373 5365 5357 5349 5341 5333 5326 5319 5312 5305 5300 5294 5290 5285 5281 5277 5273 5270 5266 5263 5260 5258 5256
5494 5490 5485 5480 5474 5469 5462 5456 5450 5443 5437 5430 5423 5415 5407 5399 5391 5383 5375 5367 5359 5352 5344 5336 5328 5321 5314 5307 5301 5295 5289 5285 5280 5276 5272 5268 5265 5262 5259 5256 5254 5252 5250
5480 5476 5471 5465 5460 5454 5448 5441 5435 5429 5422 5415 5407 5400 5392 5384 5376 5369 5361 5353 5346 5338 5330 5322 5316 5309 5302 5296 5290 5285 5280 5275 5271 5267 5264 5260 5257 5254 5251 5249 5247 5246 5244
5466 5461 5456 5451 5445 5439 5433 5427 5420 5414 5407 5400 5392 5385 5377 5370 5362 5354 5347 5339 5332 5324 5317 5310 5304 5297 5291 5286 5280 5275 5271 5266 5262 5258 5255 5252 5249 5246 5244 5242 5241 5240 5239
5451 5446 5441 5436 5430 5424 5418 5412 5406 5399 5392 5385 5377 5370 5362 5355 5347 5340 5333 5326 5319 5312 5305 5298 5292 5287 5281 5276 5271 5266 5262 5257 5253 5250 5247 5244 5241 5238 5237 5235 5235 5234 5234
5437 5432 5426 5421 5415 5409 5403 5397 5391 5384 5377 5370 5363 5355 5348 5341 5334 5327 5320 5313 5307 5300 5294 5288 5282 5277 5272 5267 5262 5257 5253 5249 5245 5241 5238 5236 5233 5231 5230 5229 5228 5228 5228